Livigno, Italy 16 day weather forecast

Slopes altitude range 1815 m - 2795m

Number of lifts: 30 Pistes: 115km

In some cases the lift and piste totals shown are for the ski domain (e.g. Three Valleys) rather than individual resort (e.g. Courchevel)

Overview

The 16 day weather forecast is fully updated 4 times every day.

    • Tue 19 MAR 2019
    • Tue 19
    • -18C -7C
    • Wed 20 MAR 2019
    • Wed 20
    • -17C -4C
    • Thu 21 MAR 2019
    • Thu 21
    • -12C -1C
    • Fri 22 MAR 2019
    • Fri 22
    • -7C 1C
    • Sat 23 MAR 2019
    • Sat 23
    • -5C 2C
    • Sun 24 MAR 2019
    • Sun 24
    • -5C 1C
    • Mon 25 MAR 2019
    • Mon 25
    • -7C -2C
    • Tue 26 MAR 2019
    • Tue 26
    • -5C 1C
    • Wed 27 MAR 2019
    • Wed 27
    • -4C 3C
    • Thu 28 MAR 2019
    • Thu 28
    • -2C 4C
    • Fri 29 MAR 2019
    • Fri 29
    • -3C 6C
    • Sat 30 MAR 2019
    • Sat 30
    • -1C 7C
    • Sun 31 MAR 2019
    • Sun 31
    • 0C 5C
    • Mon 01 APR 2019
    • Mon 01
    • -2C 3C
    • Tue 02 APR 2019
    • Tue 02
    • -1C 6C
    • Wed 03 APR 2019
    • Wed 03
    • 0C 8C

Date:

Time Type 0°C level Temp Chill Snow Cloud Speed Gust Dir Press
3:00 0m -18°C -18_9 0cm 64% 9mph 9mph 1027mB
6:00 0m -19°C -19_8 0cm 36% 8mph 9mph 1028mB
9:00 884m -18°C -18_8 0cm 0% 8mph 10mph 1026mB
12:00 1335m -7°C -7_8 0cm 1% 8mph 8mph 1025mB
15:00 1357m -7°C -7_9 0cm 28% 9mph 10mph 1025mB
18:00 336m -7°C -7_9 0cm 30% 9mph 9mph 1029mB
21:00 13m -16°C -16_8 0cm 29% 8mph 9mph 1032mB
0:00 0m -18°C -18_7 0cm 18% 7mph 7mph 1034mB
3:00 0m -18°C -18_6 0cm 0% 6mph 7mph 1034mB
6:00 0m -18°C -18_6 0cm 0% 6mph 7mph 1035mB
9:00 1372m -17°C -17_5 0cm 0% 5mph 5mph 1033mB
12:00 1798m -4°C -4_4 0cm 0% 4mph 4mph 1032mB
15:00 1970m -3°C -3_4 0cm 0% 4mph 5mph 1031mB
18:00 810m -3°C -3_4 0cm 0% 4mph 5mph 1033mB
21:00 396m -13°C -13_2 0cm 0% 2mph 3mph 1036mB
0:00 382m -14°C -14_1 0cm 0% 1mph 2mph 1036mB
3:00 412m -14°C -14_2 0cm 0% 2mph 3mph 1035mB
6:00 531m -14°C -14_2 0cm 0% 2mph 3mph 1035mB
9:00 2104m -12°C -12_4 0cm 0% 4mph 5mph 1033mB
12:00 2367m -1°C -1_5 0cm 0% 5mph 6mph 1031mB
15:00 2491m 0°C 0_3 0cm 0% 3mph 3mph 1029mB
18:00 1263m 0°C 0_1 0cm 0% 1mph 1mph 1032mB
21:00 1111m -9°C -9_1 0cm 63% 1mph 2mph 1033mB
0:00 1159m -9°C -9_2 0cm 61% 2mph 2mph 1033mB
3:00 1171m -9°C -9_1 0cm 0% 1mph 2mph 1033mB
6:00 1311m -9°C -9_1 0cm 0% 1mph 2mph 1033mB
9:00 2846m -7°C -7_4 0cm 0% 4mph 4mph 1030mB
12:00 2851m 1°C 1_5 0cm 0% 5mph 6mph 1028mB
15:00 2831m 2°C 2_4 0cm 0% 4mph 4mph 1028mB
18:00 1733m 2°C 2_1 0cm 0% 1mph 2mph 1030mB
21:00 1583m -6°C -6_1 0cm 0% 1mph 2mph 1031mB
0:00 1571m -6°C -6_1 0cm 0% 1mph 2mph 1031mB
3:00 1521m -6°C -6_1 0cm 0% 1mph 2mph 1030mB
6:00 1616m -6°C -6_1 0cm 0% 1mph 2mph 1030mB
9:00 3110m -5°C -5_3 0cm 0% 3mph 4mph 1027mB
12:00 2971m 2°C 2_3 0cm 0% 3mph 4mph 1026mB
15:00 2951m 2°C 2_2 0cm 0% 2mph 3mph 1024mB
18:00 1965m 2°C 2_3 0cm 0% 3mph 3mph 1026mB
21:00 1784m -4°C -4_3 0cm 0% 3mph 4mph 1027mB
0:00 1708m -5°C -5_4 0cm 0% 4mph 4mph 1027mB
3:00 1498m -6°C -6_1 0cm 0% 1mph 2mph 1026mB
6:00 1559m -7°C -7_2 0cm 0% 2mph 2mph 1026mB
9:00 2524m -5°C -5_3 0cm 0% 3mph 3mph 1025mB
12:00 2625m 1°C 1_4 0cm 0% 4mph 5mph 1023mB
15:00 2602m 1°C 1_6 0cm 0% 6mph 7mph 1021mB
18:00 1918m 1°C 1_7 0cm 5% 7mph 8mph 1023mB
21:00 1764m -5°C -5_9 0cm 45% 9mph 10mph 1025mB
0:00 1503m -6°C -6_8 0cm 58% 8mph 9mph 1025mB
3:00 1236m -8°C -8_9 0cm 76% 9mph 10mph 1024mB
6:00 1231m -9°C -9_10 0cm 40% 10mph 11mph 1025mB
9:00 1958m -7°C -7_10 0cm 48% 10mph 12mph 1024mB
12:00 2234m -2°C -2_8 0cm 57% 8mph 8mph 1022mB
15:00 2259m -1°C -1_9 0cm 10% 9mph 9mph 1021mB
18:00 1581m -1°C -1_8 0cm 12% 8mph 9mph 1023mB
21:00 1336m -7°C -7_8 0cm 37% 8mph 9mph 1026mB
0:00 1323m -7°C -7_7 0cm 68% 7mph 8mph 1027mB
3:00 1075m -9°C -9_6 0cm 21% 6mph 7mph 1027mB
6:00 1044m -10°C -10_8 0cm 11% 8mph 8mph 1029mB
9:00 1710m -5°C -5_4 0cm 5% 4mph 5mph 1029mB
12:00 1858m 1°C 1_6 0cm 9% 6mph 6mph 1027mB
15:00 1877m 1°C 1_6 0cm 42% 6mph 7mph 1027mB
18:00 1432m 1°C 1_3 0cm 43% 3mph 4mph 1030mB
21:00 1176m -5°C -5_3 0cm 35% 3mph 4mph 1033mB
0:00 1084m -5°C -5_5 0cm 21% 5mph 5mph 1033mB
3:00 1138m -5°C -5_5 0cm 0% 5mph 6mph 1032mB
6:00 1251m -5°C -5_4 0cm 0% 4mph 5mph 1032mB
9:00 1965m -4°C -4_3 0cm 0% 3mph 4mph 1030mB
12:00 2084m 3°C 3_4 0cm 0% 4mph 4mph 1028mB
15:00 2115m 3°C 3_4 0cm 0% 4mph 4mph 1027mB
18:00 1645m 3°C 3_1 0cm 8% 1mph 2mph 1029mB
21:00 1466m -3°C -3_4 0cm 21% 4mph 5mph 1030mB
0:00 1427m -3°C -3_4 0cm 11% 4mph 4mph 1030mB
3:00 1365m -3°C -3_4 0cm 1% 4mph 4mph 1030mB
6:00 1459m -4°C -4_3 0cm 1% 3mph 4mph 1030mB
9:00 2028m -2°C -2_3 0cm 0% 3mph 3mph 1028mB
12:00 2198m 4°C 4_4 0cm 0% 4mph 4mph 1026mB
15:00 2248m 5°C 5_4 0cm 0% 4mph 4mph 1024mB
18:00 1622m 5°C 5_2 0cm 0% 2mph 3mph 1026mB
Morning 0mm 0 1260m -5°C -5_3 0cm 0% 3mph 4mph 1027mB
Afternoon 0mm 0 1677m 6°C 6_3 0cm 0% 3mph 4mph 1023mB
Morning 0mm 0 1582m -2°C -2_4 0cm 5% 4mph 5mph 1023mB
Afternoon 0mm 0 2429m 7°C 7_2 0cm 10% 2mph 3mph 1019mB
Morning 0mm 0 1669m -2°C -2_5 0cm 12% 5mph 6mph 1021mB
Afternoon 0.223958mm 2.5625 2087m 5°C 5_7 20cm 43% 7mph 12mph 1019mB
Morning 0.0677083mm 0.0625 1783m -1°C -1_4 1cm 88% 4mph 6mph 1022mB
Afternoon 0.0364583mm 0.0625 1498m 3°C 3_5 1cm 88% 5mph 6mph 1022mB
Morning 0mm 0 1489m -4°C -4_4 0cm 21% 4mph 4mph 1025mB
Afternoon 0mm 0 1768m 6°C 6_5 0cm 1% 5mph 6mph 1023mB
Morning 0mm 0 1700m -2°C -2_5 0cm 0% 5mph 5mph 1026mB
Afternoon 0mm 0 2723m 8°C 8_3 0cm 0% 3mph 3mph 1026mB

16 day outlook at a glance

Forecast issued: 18/03/2019 23:56:14

Chat

Your comments and questions. In a resort? Let us know what it's like!


Characters left 250

For terms and conditions see Readers Comments on the Cookie and privacy policy page.